TimeMST,TemperatureF,Dew PointF,Humidity,Sea Level PressureIn,VisibilityMPH,Wind Direction,Wind SpeedMPH,Gust SpeedMPH,PrecipitationIn,Events,Conditions,WindDirDegrees,DateUTC
12:15 AM,60.8,26.6,27,30.04,10.0,Calm,Calm,-,N/A,,Clear,0,2012-11-07 07:15:00
12:35 AM,60.8,26.6,27,30.04,10.0,Calm,Calm,-,N/A,,Clear,0,2012-11-07 07:35:00
12:55 AM,60.8,26.6,27,30.04,10.0,Calm,Calm,-,N/A,,Clear,0,2012-11-07 07:55:00
1:15 AM,59.0,24.8,27,30.04,10.0,Calm,Calm,-,N/A,,Clear,0,2012-11-07 08:15:00
1:55 AM,55.4,24.8,31,30.04,10.0,Calm,Calm,-,N/A,,Clear,0,2012-11-07 08:55:00
2:15 AM,55.4,24.8,31,30.04,10.0,Calm,Calm,-,N/A,,Clear,0,2012-11-07 09:15:00
2:35 AM,55.4,24.8,31,30.04,10.0,Calm,Calm,-,N/A,,Clear,0,2012-11-07 09:35:00
2:55 AM,57.2,26.6,31,30.04,10.0,Calm,Calm,-,N/A,,Clear,0,2012-11-07 09:55:00
3:15 AM,55.4,24.8,31,30.03,10.0,Calm,Calm,-,N/A,,Clear,0,2012-11-07 10:15:00
3:35 AM,55.4,24.8,31,30.03,10.0,Calm,Calm,-,N/A,,Clear,0,2012-11-07 10:35:00
3:55 AM,55.4,24.8,31,30.03,10.0,Calm,Calm,-,N/A,,Clear,0,2012-11-07 10:55:00
4:15 AM,55.4,24.8,31,30.03,10.0,Calm,Calm,-,N/A,,Clear,0,2012-11-07 11:15:00
4:35 AM,55.4,24.8,31,30.03,10.0,Calm,Calm,-,N/A,,Clear,0,2012-11-07 11:35:00
4:55 AM,55.4,24.8,31,30.03,10.0,Calm,Calm,-,N/A,,Clear,0,2012-11-07 11:55:00
5:15 AM,53.6,24.8,33,30.03,10.0,Calm,Calm,-,N/A,,Clear,0,2012-11-07 12:15:00
5:35 AM,55.4,24.8,31,30.03,10.0,Calm,Calm,-,N/A,,Clear,0,2012-11-07 12:35:00
5:55 AM,55.4,24.8,31,30.03,10.0,Calm,Calm,-,N/A,,Clear,0,2012-11-07 12:55:00
6:15 AM,55.4,24.8,31,30.03,10.0,Calm,Calm,-,N/A,,Clear,0,2012-11-07 13:15:00
6:35 AM,53.6,24.8,33,30.04,10.0,Calm,Calm,-,N/A,,Clear,0,2012-11-07 13:35:00
6:55 AM,53.6,24.8,33,30.04,10.0,Calm,Calm,-,N/A,,Clear,0,2012-11-07 13:55:00
7:15 AM,55.4,24.8,31,30.04,10.0,Calm,Calm,-,N/A,,Clear,0,2012-11-07 14:15:00
7:35 AM,55.4,24.8,31,30.05,10.0,Calm,Calm,-,N/A,,Clear,0,2012-11-07 14:35:00
7:55 AM,57.2,26.6,31,30.06,10.0,Calm,Calm,-,N/A,,Clear,0,2012-11-07 14:55:00
8:15 AM,60.8,26.6,27,30.06,10.0,Calm,Calm,-,N/A,,Clear,0,2012-11-07 15:15:00
8:35 AM,62.6,26.6,26,30.06,10.0,Calm,Calm,-,N/A,,Clear,0,2012-11-07 15:35:00
8:55 AM,62.6,26.6,26,30.06,10.0,Calm,Calm,-,N/A,,Clear,0,2012-11-07 15:55:00
9:15 AM,66.2,28.4,24,30.06,10.0,Calm,Calm,-,N/A,,Clear,0,2012-11-07 16:15:00
9:35 AM,68.0,28.4,23,30.06,10.0,Calm,Calm,-,N/A,,Clear,0,2012-11-07 16:35:00
9:55 AM,69.8,28.4,21,30.06,10.0,Calm,Calm,-,N/A,,Clear,0,2012-11-07 16:55:00
10:15 AM,71.6,30.2,22,30.05,10.0,Calm,Calm,-,N/A,,Clear,0,2012-11-07 17:15:00
10:35 AM,73.4,30.2,20,30.05,10.0,Calm,Calm,-,N/A,,Clear,0,2012-11-07 17:35:00
10:55 AM,75.2,30.2,19,30.04,10.0,Calm,Calm,-,N/A,,Clear,0,2012-11-07 17:55:00
11:15 AM,77.0,30.2,18,30.03,10.0,Calm,Calm,-,N/A,,Clear,0,2012-11-07 18:15:00
11:35 AM,78.8,30.2,17,30.02,10.0,Calm,Calm,-,N/A,,Clear,0,2012-11-07 18:35:00
11:55 AM,80.6,30.2,16,30.00,10.0,Calm,Calm,-,N/A,,Clear,0,2012-11-07 18:55:00
12:15 PM,80.6,30.2,16,29.99,10.0,Calm,Calm,-,N/A,,Clear,0,2012-11-07 19:15:00
12:35 PM,82.4,32.0,16,29.98,10.0,Calm,Calm,-,N/A,,Clear,0,2012-11-07 19:35:00
12:55 PM,84.2,32.0,15,29.97,10.0,Calm,Calm,-,N/A,,Clear,0,2012-11-07 19:55:00
1:15 PM,84.2,30.2,14,29.96,10.0,Calm,Calm,-,N/A,,Clear,0,2012-11-07 20:15:00
1:35 PM,86.0,30.2,13,29.95,10.0,Calm,Calm,-,N/A,,Clear,0,2012-11-07 20:35:00
1:55 PM,86.0,30.2,13,29.94,10.0,Calm,Calm,-,N/A,,Clear,0,2012-11-07 20:55:00
2:15 PM,87.8,30.2,13,29.93,10.0,Calm,Calm,-,N/A,,Clear,0,2012-11-07 21:15:00
2:35 PM,87.8,30.2,13,29.93,10.0,Calm,Calm,-,N/A,,Clear,0,2012-11-07 21:35:00
2:55 PM,87.8,30.2,13,29.92,10.0,Calm,Calm,-,N/A,,Clear,0,2012-11-07 21:55:00
3:15 PM,87.8,30.2,13,29.91,10.0,Calm,Calm,-,N/A,,Clear,0,2012-11-07 22:15:00
3:35 PM,87.8,30.2,13,29.91,10.0,North,4.6,-,N/A,,Clear,10,2012-11-07 22:35:00
3:55 PM,87.8,30.2,13,29.91,10.0,NNW,6.9,-,N/A,,Clear,340,2012-11-07 22:55:00
4:15 PM,87.8,30.2,13,29.91,10.0,NNW,4.6,-,N/A,,Clear,330,2012-11-07 23:15:00
4:35 PM,87.8,30.2,13,29.91,10.0,NW,4.6,-,N/A,,Clear,320,2012-11-07 23:35:00
4:55 PM,86.0,30.2,13,29.90,10.0,NW,5.8,-,N/A,,Clear,310,2012-11-07 23:55:00
5:15 PM,84.2,28.4,13,29.90,10.0,Calm,Calm,-,N/A,,Clear,0,2012-11-08 00:15:00
5:35 PM,82.4,28.4,14,29.91,10.0,Calm,Calm,-,N/A,,Clear,0,2012-11-08 00:35:00
5:55 PM,78.8,26.6,15,29.91,10.0,Calm,Calm,-,N/A,,Clear,0,2012-11-08 00:55:00
6:15 PM,77.0,26.6,16,29.91,10.0,Calm,Calm,-,N/A,,Clear,0,2012-11-08 01:15:00
6:35 PM,75.2,26.6,17,29.92,10.0,Calm,Calm,-,N/A,,Clear,0,2012-11-08 01:35:00
6:55 PM,75.2,28.4,18,29.92,10.0,NW,5.8,-,N/A,,Clear,310,2012-11-08 01:55:00
7:15 PM,77.0,30.2,18,29.92,10.0,Calm,Calm,-,N/A,,Clear,0,2012-11-08 02:15:00
7:35 PM,75.2,28.4,18,29.93,10.0,Calm,Calm,-,N/A,,Clear,0,2012-11-08 02:35:00
7:55 PM,75.2,26.6,17,29.93,10.0,WNW,3.5,-,N/A,,Clear,290,2012-11-08 02:55:00
8:15 PM,75.2,26.6,17,29.93,10.0,Calm,Calm,-,N/A,,Clear,0,2012-11-08 03:15:00
8:35 PM,69.8,23.0,17,29.93,10.0,Calm,Calm,-,N/A,,Clear,0,2012-11-08 03:35:00
8:55 PM,66.2,26.6,23,29.93,10.0,Calm,Calm,-,N/A,,Clear,0,2012-11-08 03:55:00
9:15 PM,64.4,24.8,22,29.93,10.0,Calm,Calm,-,N/A,,Clear,0,2012-11-08 04:15:00
9:35 PM,64.4,24.8,22,29.93,10.0,Calm,Calm,-,N/A,,Clear,0,2012-11-08 04:35:00
9:55 PM,68.0,26.6,21,29.93,10.0,Calm,Calm,-,N/A,,Clear,0,2012-11-08 04:55:00
10:15 PM,66.2,24.8,21,29.93,10.0,Calm,Calm,-,N/A,,Clear,0,2012-11-08 05:15:00
10:35 PM,64.4,24.8,22,29.93,10.0,Calm,Calm,-,N/A,,Clear,0,2012-11-08 05:35:00
10:55 PM,62.6,24.8,24,29.93,10.0,Calm,Calm,-,N/A,,Clear,0,2012-11-08 05:55:00
11:15 PM,60.8,23.0,23,29.93,10.0,Calm,Calm,-,N/A,,Clear,0,2012-11-08 06:15:00
11:35 PM,57.2,21.2,25,29.93,10.0,Calm,Calm,-,N/A,,Clear,0,2012-11-08 06:35:00
11:55 PM,62.6,26.6,26,29.93,10.0,Calm,Calm,-,N/A,,Clear,0,2012-11-08 06:55:00